Flag for Canada Weather past 2 weeks in Saguenay, Quebec, Canada

Now
62 °F

Refreshingly cool.


Feels Like: 62 °F
Forecast: 41 / 78 °F
Wind: 9 mph from West

Location: Jonquiere Airport

Current Time: May 28, 2015 at 8:50:40 PM

Latest Report: May 28, 2015 at 8:00 PM


Visibility: N/A

Pressure: 30.19 "Hg

Humidity: 42%

Dew point: 38 °F

Location of SaguenayLocation

Historic Weather in Saguenay — Graph

°F

Saguenay temperature yesterday

Maximum temperature yesterday: 77 °F (at 6:00 PM)
Minimum temperature yesterday: 54 °F (at 3:00 AM)
Average temperature yesterday: 66 °F

Past Weeks' High & Low Weather Summary

 TemperatureHumidityPressure
High78 °F (May 19, 3:00 PM)97% (May 17, 2:00 AM)30.29 "Hg (May 17, 2:00 AM)
Low34 °F (May 23, 6:00 AM)15% (May 24, 6:00 PM)29.47 "Hg (May 19, 6:00 PM)
Average56 °F60%29.97 "Hg
* Reported May 13 7:00 PM — May 28 7:00 PM, Saguenay, Weather by CustomWeather, © 2015

Note: Actual official high and low records may vary slightly from our data, if they occured in-between our weather recording intervals... More about our weather records

Advertising

Saguenay weather history for previous 24 hours

 ConditionsComfort  
Time TempWeatherWind HumidityBarometerVisibility
7:00 PM
Thu, May 28
65 °FMild.12 mph38%30.17 "HgN/A
6:00 PM65 °FMild.13 mph48%30.14 "HgN/A
5:00 PM65 °FMild.9 mph56%30.12 "HgN/A
4:00 PM63 °FMild.12 mph64%30.11 "HgN/A
3:00 PM60 °FCool.13 mph72%30.10 "HgN/A
2:00 PM59 °FCool.13 mph79%30.09 "HgN/A
1:00 PM60 °FCool.13 mph82%30.08 "HgN/A
12:00 PM62 °FCool.14 mph79%30.05 "HgN/A
11:00 AM62 °FMild.12 mph79%30.02 "HgN/A
10:00 AM62 °FCool.10 mph83%29.99 "HgN/A
9:00 AM60 °FCool.9 mph92%29.98 "HgN/A
8:00 AM62 °FMild.14 mph81%29.94 "HgN/A
7:00 AM65 °FMild.13 mph86%29.89 "HgN/A
6:00 AM66 °FMild.12 mph82%29.87 "HgN/A
5:00 AM66 °FMild.13 mph88%29.85 "HgN/A
4:00 AM67 °FMild.8 mph79%29.83 "HgN/A
3:00 AM66 °FMild.3 mph86%29.82 "HgN/A
2:00 AM66 °FMild.9 mph85%29.82 "HgN/A
1:00 AM67 °FMild.16 mph82%29.82 "HgN/A
12:00 AM65 °FMild.3 mph83%29.83 "HgN/A
11:00 PM
Wed, May 27
72 °FMild.12 mph72%29.80 "HgN/A
10:00 PM72 °FMild.14 mph70%29.80 "HgN/A
9:00 PM72 °FMild.13 mph73%29.79 "HgN/A
8:00 PM75 °FMild.17 mph67%29.79 "HgN/A
Weather by CustomWeather, © 2015

See weather overviewHow to use our weather pages